Showing default

TELKOM 3S, 41944

Orbit data source: Space-Track

TELKOM 3S, 41944 is a payload satellite owned by Telkom (ID) in GEO that was launched on Tue, 14 Feb 2017 UTC via an ARIANE 5ECA launch vehicle from the French Guiana (FRGUI). Payloads include a variety of satellites, spacecraft, and rockets equipped with specific instruments for various scientific and technological missions. These include communications satellites like Starlink; space stations such as the ISS; scientific satellites like the Hubble; Earth observation satellites from companies like Planet Labs, Umbra, and HawkEye 360; GPS; miniature CubeSats for education and research; and military/defense satellites.

Not visible in the next 10 days
TELKOM 3S details
Identifier
41944, 2017-007A
Orbit
GEO
Last TLE update14 hours ago
Origin
Flag of IDTelkom (ID / INDO)
ManufacturerThales Alenia
MissionOperational Commercial Communications
Bus & MotorSPACEBUS 4000B2, S400
Mass3,500 kg wet, ~2,000 kg dry
Launch date (UTC)
2017-02-14 (8 years ago)
Launch vehicle
ARIANE 5ECA
Launch site
French Guiana (FRGUI)
Object type
Payload
Rocket body
Debris
Shape & HBRBox + 2 Pan, 37 m
Radar Cross Section31.794 m², Large (>1 m²)

Expand to show TLE details & history

TLE from 14 hours ago
0 TELKOM 3S
1 41944U 17007A   24360.98124163 -.00000335  00000-0  00000-0 0  9998
2 41944   0.0146 342.5627 0002462 302.9012 280.7506  1.00270241 28741
Epoch: 2024-12-25T23:32Z
Definitive object data (Epoch: 2024-12-25T23:32:59.276Z)
Latitude-0.02272°
Longitude117.96513°
Altitude35,784.556 km
Speed3.075 km/s
True Right ascension13h 44m 43s
True Declination0° 01' 22"
Sunlit
Object was in daylight at TLE epoch
Visualization TLE readout
Latitude0.03545°
Longitude-25.0546°
Altitude35,794.328 km
Speed3.074 km/s
Apparent Right ascension03h 55m 53s
Apparent Declination-5° 02' 21"
Sunlit
Object is in daylight
Visualization observer readout
Local Sidereal Time13:20:08
Azimuth304.469° NW
Elevation-40.589°
Doppler factor1
Orbital elements
Apogee altitude35,798.48 km
Perigee altitude35,777.717 km
Semi-major axis42,166.235 km
Eccentricity0.0002462
Inclination0.0146°
RAAN342.5627°
Arg. of periapsis302.9012°
True anomaly280.72288°
Mean anomaly280.7506°
Eccentric anomaly280.73674°
Mean motion0.25067 °/min
BSTARUnknown
Orbital period1436.17 mins
Loading historical data...
41944 neighbors
Authenticating...
Loading maneuver chart data...
Loading historical data...
Loading historical data...
Loading historical data...
Loading historical data...
Loading historical data...
Loading historical data...
Loading historical data...
Other satellites on launch #7 in the year 2017 (2017-02-14 UTC)

TELKOM 3S Visibility forecast

Observer location: undefined°, undefined

TELKOM 3S is not visible in the next 10 days
Span
Click to sort rows by Start time (UTC) header in descending order
Start Az.
Max El. time (UTC)
Max El. Az.
Max El.
End time (UTC)
End Az.
|